EW9842 Weather Reports


time (UTC)temp
F
wind
direction
speed
knots
gust
knots
rain 1hr
in
rain 24hr
in
rain mn
in
humidity
%
barometer
mb
20260505034534 63 208 3.5 7.8 0.00 0.00 0.00 52 1013.9
20260505031530 65 238 0.9 5.2 0.00 0.00 0.00 51 1013.5
20260505030038 67 238 0.0 6.1 0.00 0.00 0.00 46 1013.4
20260505024529 69 208 0.9 6.1 0.00 0.00 0.00 44 1013.2
20260505023030 70 252 2.6 7.8 0.00 0.00 0.00 41 1013.2
20260505021533 73 277 3.5 7.8 0.00 0.00 0.00 38 1013.1
20260505014642 75 272 3.5 8.7 0.00 0.00 0.00 36 1013.0
20260505011533 75 239 4.3 12.2 0.00 0.00 0.00 33 1013.1
20260505010035 76 241 5.2 13.0 0.00 0.00 0.00 33 1013.1
20260505004607 77 245 5.2 13.0 0.00 0.00 0.00 32 1013.1
20260505003032 77 247 4.3 13.0 0.00 0.00 0.00 32 1013.0
20260505001536 78 242 6.1 13.0 0.00 0.00 0.00 32 1012.9
20260504234648 79 247 5.2 12.2 0.00 0.00 0.00 31 1012.8
20260504233034 80 240 5.2 13.0 0.00 0.00 0.00 32 1012.8
20260504231531 80 238 5.2 14.8 0.00 0.00 0.00 33 1012.9
20260504230036 80 255 5.2 12.2 0.00 0.00 0.00 32 1013.0
20260504224605 80 267 5.2 14.8 0.00 0.00 0.00 32 1013.0
20260504223032 80 268 6.1 13.0 0.00 0.00 0.00 31 1013.1
20260504221537 80 263 6.1 13.0 0.00 0.00 0.00 30 1013.1
20260504220031 80 247 5.2 11.3 0.00 0.00 0.00 31 1013.1
20260504214535 81 237 6.1 13.0 0.00 0.00 0.00 31 1013.2
20260504211608 80 256 5.2 13.0 0.00 0.00 0.00 31 1013.3
20260504210030 80 256 5.2 13.9 0.00 0.00 0.00 32 1013.3
20260504203031 80 277 5.2 12.2 0.00 0.00 0.00 34 1013.5
20260504201535 79 305 4.3 8.7 0.00 0.00 0.00 38 1013.6
20260504200033 78 333 3.5 9.6 0.00 0.00 0.00 38 1013.6
20260504194531 79 355 4.3 10.4 0.00 0.00 0.00 38 1013.6
20260504193031 78 345 3.5 7.8 0.00 0.00 0.00 39 1013.6
20260504183142 77 349 3.5 7.8 0.00 0.00 0.00 41 1013.9
20260504174610 75 328 2.6 6.1 0.00 0.00 0.00 40 1013.9
20260504173107 75 321 2.6 6.1 0.00 0.00 0.00 40 1013.9
20260504171636 74 331 2.6 6.1 0.00 0.00 0.00 43 1013.9
20260504120107 53 154 2.6 4.3 0.00 0.00 0.00 68 1013.0
20260504081530 56 149 3.5 6.1 0.00 0.00 0.00 59 1013.8
20260504044607 63 149 3.5 6.1 0.00 0.00 0.00 51 1013.5
20260504043029 63 136 3.5 7.8 0.00 0.00 0.00 51 1013.4
20260504041535 63 142 3.5 6.1 0.00 0.00 0.00 51 1013.3
20260504040046 63 157 2.6 4.3 0.00 0.00 0.00 52 1013.1